date,time,SUV Intensity [MED/Hr],UV Index,Daily total [MED],Since Last [MED]
08/09/2022,00:12:44,0.000,0.0,0.0,0.0
08/09/2022,00:13:36,0.000,0.0,0.0,0.0
08/09/2022,00:14:36,-0.000,0.0,0.0,0.0
08/09/2022,00:15:36,-0.001,0.0,0.0,0.0
08/09/2022,00:16:36,0.000,0.0,0.0,0.0
08/09/2022,00:17:36,0.000,0.0,0.0,0.0
08/09/2022,00:18:36,0.001,0.0,0.0,0.0
08/09/2022,00:19:36,0.000,0.0,0.0,0.0
08/09/2022,00:20:38,0.000,0.0,0.0,0.0
08/09/2022,00:21:37,0.000,0.0,0.0,0.0
08/09/2022,00:22:36,-0.000,0.0,0.0,0.0
08/09/2022,00:23:37,0.000,0.0,0.0,0.0
08/09/2022,00:24:36,-0.000,0.0,0.0,0.0
08/09/2022,00:25:36,0.000,0.0,0.0,0.0
08/09/2022,00:26:36,0.000,0.0,0.0,0.0
08/09/2022,00:27:36,-0.000,0.0,0.0,0.0
08/09/2022,00:28:36,0.000,0.0,0.0,0.0
08/09/2022,00:29:36,0.000,0.0,0.0,0.0
08/09/2022,00:30:44,0.001,0.0,0.0,0.0
08/09/2022,00:31:36,-0.000,0.0,0.0,0.0
08/09/2022,00:32:36,0.000,0.0,0.0,0.0
08/09/2022,00:33:36,0.000,0.0,0.0,0.0
08/09/2022,00:34:36,0.000,0.0,0.0,0.0
08/09/2022,00:35:36,0.001,0.0,0.0,0.0
08/09/2022,00:36:36,0.000,0.0,0.0,0.0
08/09/2022,00:37:36,0.000,0.0,0.0,0.0
08/09/2022,00:38:37,0.001,0.0,0.0,0.0
08/09/2022,00:39:36,0.000,0.0,0.0,0.0
08/09/2022,00:40:36,0.000,0.0,0.0,0.0
08/09/2022,00:41:36,0.001,0.0,0.0,0.0
08/09/2022,00:42:37,0.000,0.0,0.0,0.0
08/09/2022,00:43:37,0.000,0.0,0.0,0.0
08/09/2022,00:44:36,0.000,0.0,0.0,0.0
08/09/2022,00:45:44,0.000,0.0,0.0,0.0
08/09/2022,00:46:36,0.000,0.0,0.0,0.0
08/09/2022,00:49:38,-0.000,0.0,0.0,0.0
08/09/2022,00:50:36,-0.000,0.0,0.0,0.0
08/09/2022,00:51:36,0.000,0.0,0.0,0.0
08/09/2022,00:52:36,0.000,0.0,0.0,0.0
08/09/2022,00:53:52,0.000,0.0,0.0,0.0
08/09/2022,00:55:36,0.000,0.0,0.0,0.0
08/09/2022,00:56:36,0.000,0.0,0.0,0.0
08/09/2022,00:57:36,-0.000,0.0,0.0,0.0
08/09/2022,00:58:36,0.000,0.0,0.0,0.0
08/09/2022,00:59:37,0.001,0.0,0.0,0.0
08/09/2022,01:00:36,0.000,0.0,0.0,0.0
08/09/2022,01:01:37,0.000,0.0,0.0,0.0
08/09/2022,01:02:36,0.000,0.0,0.0,0.0
08/09/2022,01:03:38,0.000,0.0,0.0,0.0
08/09/2022,01:04:36,0.000,0.0,0.0,0.0
08/09/2022,01:05:36,0.000,0.0,0.0,0.0
08/09/2022,01:06:36,0.000,0.0,0.0,0.0
08/09/2022,01:07:36,-0.000,0.0,0.0,0.0
08/09/2022,01:08:45,0.000,0.0,0.0,0.0
08/09/2022,01:09:36,0.000,0.0,0.0,0.0
08/09/2022,01:10:36,0.000,0.0,0.0,0.0
08/09/2022,01:11:37,0.000,0.0,0.0,0.0
08/09/2022,01:12:36,0.000,0.0,0.0,0.0
08/09/2022,01:13:37,-0.001,0.0,0.0,0.0
08/09/2022,01:14:36,0.000,0.0,0.0,0.0
08/09/2022,01:15:37,0.000,0.0,0.0,0.0
08/09/2022,01:16:36,0.000,0.0,0.0,0.0
08/09/2022,01:17:37,0.000,0.0,0.0,0.0
08/09/2022,01:18:36,0.000,0.0,0.0,0.0
08/09/2022,01:19:36,-0.000,0.0,0.0,0.0
08/09/2022,01:20:36,-0.000,0.0,0.0,0.0
08/09/2022,01:21:36,0.000,0.0,0.0,0.0
08/09/2022,01:22:36,-0.000,0.0,0.0,0.0
08/09/2022,01:23:36,0.000,0.0,0.0,0.0
08/09/2022,01:24:52,-0.000,0.0,0.0,0.0
08/09/2022,01:26:37,0.000,0.0,0.0,0.0
08/09/2022,01:27:36,0.000,0.0,0.0,0.0
08/09/2022,01:28:36,0.000,0.0,0.0,0.0
08/09/2022,01:29:36,0.000,0.0,0.0,0.0
08/09/2022,01:30:37,0.000,0.0,0.0,0.0
08/09/2022,01:31:36,0.001,0.0,0.0,0.0
08/09/2022,01:32:36,-0.000,0.0,0.0,0.0
08/09/2022,01:33:36,0.001,0.0,0.0,0.0
08/09/2022,01:34:36,0.001,0.0,0.0,0.0
08/09/2022,01:35:36,0.001,0.0,0.0,0.0
08/09/2022,01:36:36,0.000,0.0,0.0,0.0
08/09/2022,01:37:36,0.001,0.0,0.0,0.0
08/09/2022,01:38:44,0.000,0.0,0.0,0.0
08/09/2022,01:39:36,-0.000,0.0,0.0,0.0
08/09/2022,01:40:36,0.000,0.0,0.0,0.0
08/09/2022,01:41:44,-0.000,0.0,0.0,0.0
08/09/2022,01:42:36,0.001,0.0,0.0,0.0
08/09/2022,01:43:37,0.001,0.0,0.0,0.0
08/09/2022,01:44:53,0.000,0.0,0.0,0.0
08/09/2022,01:46:45,0.000,0.0,0.0,0.0
08/09/2022,01:47:44,0.000,0.0,0.0,0.0
08/09/2022,01:48:36,0.001,0.0,0.0,0.0
08/09/2022,01:49:36,0.001,0.0,0.0,0.0
08/09/2022,01:50:36,0.000,0.0,0.0,0.0
08/09/2022,01:51:37,0.000,0.0,0.0,0.0
08/09/2022,01:52:36,-0.000,0.0,0.0,0.0
08/09/2022,01:53:37,0.000,0.0,0.0,0.0
08/09/2022,01:54:36,-0.000,0.0,0.0,0.0
08/09/2022,01:55:36,0.000,0.0,0.0,0.0
08/09/2022,01:56:36,0.000,0.0,0.0,0.0
08/09/2022,01:57:36,0.000,0.0,0.0,0.0
08/09/2022,01:58:36,0.000,0.0,0.0,0.0
08/09/2022,01:59:36,-0.000,0.0,0.0,0.0
08/09/2022,02:00:36,-0.000,0.0,0.0,0.0
08/09/2022,02:01:36,0.001,0.0,0.0,0.0
08/09/2022,02:02:36,0.000,0.0,0.0,0.0
08/09/2022,02:03:36,0.000,0.0,0.0,0.0
08/09/2022,02:04:37,-0.000,0.0,0.0,0.0
08/09/2022,02:05:45,0.000,0.0,0.0,0.0
08/09/2022,02:06:36,0.000,0.0,0.0,0.0
08/09/2022,02:07:36,-0.000,0.0,0.0,0.0
08/09/2022,02:08:37,0.000,0.0,0.0,0.0
08/09/2022,02:09:36,0.000,0.0,0.0,0.0
08/09/2022,02:10:36,0.001,0.0,0.0,0.0
08/09/2022,02:11:36,0.000,0.0,0.0,0.0
08/09/2022,02:12:36,0.000,0.0,0.0,0.0
08/09/2022,02:13:36,0.000,0.0,0.0,0.0
08/09/2022,02:14:36,0.000,0.0,0.0,0.0
08/09/2022,02:15:36,-0.000,0.0,0.0,0.0
08/09/2022,02:16:37,0.000,0.0,0.0,0.0
08/09/2022,02:17:36,0.000,0.0,0.0,0.0
08/09/2022,02:18:37,0.001,0.0,0.0,0.0
08/09/2022,02:19:36,0.000,0.0,0.0,0.0
08/09/2022,02:20:36,-0.000,0.0,0.0,0.0
08/09/2022,02:21:37,0.001,0.0,0.0,0.0
08/09/2022,02:22:36,0.000,0.0,0.0,0.0
08/09/2022,02:23:37,-0.000,0.0,0.0,0.0
08/09/2022,02:24:37,0.000,0.0,0.0,0.0
08/09/2022,02:25:37,0.001,0.0,0.0,0.0
08/09/2022,02:26:45,0.000,0.0,0.0,0.0
08/09/2022,02:27:36,0.000,0.0,0.0,0.0
08/09/2022,02:28:45,0.001,0.0,0.0,0.0
08/09/2022,02:29:36,-0.000,0.0,0.0,0.0
08/09/2022,02:30:36,0.000,0.0,0.0,0.0
08/09/2022,02:31:37,0.000,0.0,0.0,0.0
08/09/2022,02:32:37,0.000,0.0,0.0,0.0
08/09/2022,02:33:36,0.000,0.0,0.0,0.0
08/09/2022,02:34:37,0.001,0.0,0.0,0.0
08/09/2022,02:35:38,0.000,0.0,0.0,0.0
08/09/2022,02:36:37,0.000,0.0,0.0,0.0
08/09/2022,02:37:37,0.000,0.0,0.0,0.0
08/09/2022,02:38:37,-0.000,0.0,0.0,0.0
08/09/2022,02:39:37,-0.000,0.0,0.0,0.0
08/09/2022,02:40:36,0.001,0.0,0.0,0.0
08/09/2022,02:41:45,0.000,0.0,0.0,0.0
08/09/2022,02:42:36,0.001,0.0,0.0,0.0
08/09/2022,02:43:36,0.000,0.0,0.0,0.0
08/09/2022,02:44:36,-0.000,0.0,0.0,0.0
08/09/2022,02:45:36,0.002,0.0,0.0,0.0
08/09/2022,02:46:37,-0.000,0.0,0.0,0.0
08/09/2022,02:47:44,-0.000,0.0,0.0,0.0
08/09/2022,02:48:36,0.001,0.0,0.0,0.0
08/09/2022,02:49:44,0.000,0.0,0.0,0.0
08/09/2022,02:50:36,0.001,0.0,0.0,0.0
08/09/2022,02:51:36,0.000,0.0,0.0,0.0
08/09/2022,02:52:37,0.000,0.0,0.0,0.0
08/09/2022,02:53:37,0.001,0.0,0.0,0.0
08/09/2022,02:54:37,0.000,0.0,0.0,0.0
08/09/2022,02:55:36,0.001,0.0,0.0,0.0
08/09/2022,02:56:37,0.001,0.0,0.0,0.0
08/09/2022,02:57:36,0.001,0.0,0.0,0.0
08/09/2022,02:58:37,0.001,0.0,0.0,0.0
08/09/2022,02:59:36,0.001,0.0,0.0,0.0
08/09/2022,03:00:37,0.000,0.0,0.0,0.0
08/09/2022,03:01:36,0.000,0.0,0.0,0.0
08/09/2022,03:02:45,0.000,0.0,0.0,0.0
08/09/2022,03:03:38,0.001,0.0,0.0,0.0
08/09/2022,03:04:37,0.001,0.0,0.0,0.0
08/09/2022,03:05:36,0.001,0.0,0.0,0.0
08/09/2022,03:06:37,0.000,0.0,0.0,0.0
08/09/2022,03:07:36,-0.001,0.0,0.0,0.0
08/09/2022,03:08:37,0.000,0.0,0.0,0.0
08/09/2022,03:09:37,0.001,0.0,0.0,0.0
08/09/2022,03:10:36,-0.000,0.0,0.0,0.0
08/09/2022,03:11:36,0.000,0.0,0.0,0.0
08/09/2022,03:12:37,-0.000,0.0,0.0,0.0
08/09/2022,03:13:45,0.001,0.0,0.0,0.0
08/09/2022,03:14:36,-0.000,0.0,0.0,0.0
08/09/2022,03:15:37,0.001,0.0,0.0,0.0
08/09/2022,03:16:36,0.001,0.0,0.0,0.0
08/09/2022,03:17:36,-0.000,0.0,0.0,0.0
08/09/2022,03:18:37,0.001,0.0,0.0,0.0
08/09/2022,03:19:36,0.001,0.0,0.0,0.0
08/09/2022,03:20:36,0.000,0.0,0.0,0.0
08/09/2022,03:21:36,0.002,0.0,0.0,0.0
08/09/2022,03:22:36,0.001,0.0,0.0,0.0
08/09/2022,03:23:36,0.001,0.0,0.0,0.0
08/09/2022,03:24:36,0.001,0.0,0.0,0.0
08/09/2022,03:25:44,0.000,0.0,0.0,0.0
08/09/2022,03:26:36,0.000,0.0,0.0,0.0
08/09/2022,03:27:36,-0.000,0.0,0.0,0.0
08/09/2022,03:28:37,0.001,0.0,0.0,0.0
08/09/2022,03:29:36,0.001,0.0,0.0,0.0
08/09/2022,03:30:36,0.001,0.0,0.0,0.0
08/09/2022,03:31:36,0.001,0.0,0.0,0.0
08/09/2022,03:32:36,0.000,0.0,0.0,0.0
08/09/2022,03:33:36,0.001,0.0,0.0,0.0
08/09/2022,03:34:37,0.001,0.0,0.0,0.0
08/09/2022,03:35:36,0.002,0.0,0.0,0.0
08/09/2022,03:36:36,-0.000,0.0,0.0,0.0
08/09/2022,03:37:44,0.001,0.0,0.0,0.0
08/09/2022,03:38:36,0.001,0.0,0.0,0.0
08/09/2022,03:39:36,0.001,0.0,0.0,0.0
08/09/2022,03:40:37,0.000,0.0,0.0,0.0
08/09/2022,03:41:37,0.001,0.0,0.0,0.0
08/09/2022,03:42:37,0.001,0.0,0.0,0.0
08/09/2022,03:43:36,0.002,0.0,0.0,0.0
08/09/2022,03:44:37,-0.000,0.0,0.0,0.0
08/09/2022,03:45:37,0.001,0.0,0.0,0.0
08/09/2022,03:46:37,0.001,0.0,0.0,0.0
08/09/2022,03:47:36,-0.000,0.0,0.0,0.0
08/09/2022,03:48:37,0.001,0.0,0.0,0.0
08/09/2022,03:49:36,0.001,0.0,0.0,0.0
08/09/2022,03:50:37,0.001,0.0,0.0,0.0
08/09/2022,03:51:36,0.001,0.0,0.0,0.0
08/09/2022,03:52:36,0.001,0.0,0.0,0.0
08/09/2022,03:53:36,0.001,0.0,0.0,0.0
08/09/2022,03:54:36,0.001,0.0,0.0,0.0
08/09/2022,03:55:37,0.001,0.0,0.0,0.0
08/09/2022,03:56:45,0.002,0.0,0.0,0.0
08/09/2022,03:57:38,-0.000,0.0,0.0,0.0
08/09/2022,03:58:45,0.001,0.0,0.0,0.0
08/09/2022,03:59:36,0.001,0.0,0.0,0.0
08/09/2022,04:00:37,0.001,0.0,0.0,0.0
08/09/2022,04:01:36,0.001,0.0,0.0,0.0
08/09/2022,04:02:37,0.000,0.0,0.0,0.0
08/09/2022,04:03:36,0.001,0.0,0.0,0.0
08/09/2022,04:04:37,0.001,0.0,0.0,0.0
08/09/2022,04:05:36,0.001,0.0,0.0,0.0
08/09/2022,04:06:36,0.001,0.0,0.0,0.0
08/09/2022,04:07:37,0.001,0.0,0.0,0.0
08/09/2022,04:08:36,-0.000,0.0,0.0,0.0
08/09/2022,04:09:37,0.001,0.0,0.0,0.0
08/09/2022,04:10:36,0.000,0.0,0.0,0.0
08/09/2022,04:11:45,0.001,0.0,0.0,0.0
08/09/2022,04:12:37,0.001,0.0,0.0,0.0
08/09/2022,04:13:36,0.001,0.0,0.0,0.0
08/09/2022,04:14:36,0.001,0.0,0.0,0.0
08/09/2022,04:15:37,-0.000,0.0,0.0,0.0
08/09/2022,04:16:36,0.001,0.0,0.0,0.0
08/09/2022,04:17:37,0.001,0.0,0.0,0.0
08/09/2022,04:18:36,0.002,0.0,0.0,0.0
08/09/2022,04:19:36,0.001,0.0,0.0,0.0
08/09/2022,04:20:37,0.002,0.0,0.0,0.0
08/09/2022,04:21:38,0.001,0.0,0.0,0.0
08/09/2022,04:22:36,0.001,0.0,0.0,0.0
08/09/2022,04:23:36,0.002,0.0,0.0,0.0
08/09/2022,04:24:36,0.001,0.0,0.0,0.0
08/09/2022,04:25:45,0.001,0.0,0.0,0.0
08/09/2022,04:26:36,0.000,0.0,0.0,0.0
08/09/2022,04:27:37,0.000,0.0,0.0,0.0
08/09/2022,04:28:36,0.000,0.0,0.0,0.0
08/09/2022,04:29:36,0.001,0.0,0.0,0.0
08/09/2022,04:30:37,0.001,0.0,0.0,0.0
08/09/2022,04:31:36,0.001,0.0,0.0,0.0
08/09/2022,04:32:37,0.001,0.0,0.0,0.0
08/09/2022,04:33:36,0.002,0.0,0.0,0.0
08/09/2022,04:34:36,-0.000,0.0,0.0,0.0
08/09/2022,04:35:37,0.000,0.0,0.0,0.0
08/09/2022,04:36:38,0.001,0.0,0.0,0.0
08/09/2022,04:37:36,0.001,0.0,0.0,0.0
08/09/2022,04:38:45,0.000,0.0,0.0,0.0
08/09/2022,04:39:37,0.000,0.0,0.0,0.0
08/09/2022,04:40:37,0.001,0.0,0.0,0.0
08/09/2022,04:41:37,0.001,0.0,0.0,0.0
08/09/2022,04:42:36,0.001,0.0,0.0,0.0
08/09/2022,04:43:37,0.001,0.0,0.0,0.0
08/09/2022,04:44:37,0.000,0.0,0.0,0.0
08/09/2022,04:45:37,0.001,0.0,0.0,0.0
08/09/2022,04:46:45,0.000,0.0,0.0,0.0
08/09/2022,04:47:36,0.001,0.0,0.0,0.0
08/09/2022,04:48:37,0.001,0.0,0.0,0.0
08/09/2022,04:49:36,0.001,0.0,0.0,0.0
08/09/2022,04:50:36,-0.000,0.0,0.0,0.0
08/09/2022,04:51:37,0.001,0.0,0.0,0.0
08/09/2022,04:52:37,0.000,0.0,0.0,0.0
08/09/2022,04:53:36,0.002,0.0,0.0,0.0
08/09/2022,04:54:37,-0.000,0.0,0.0,0.0
08/09/2022,04:55:36,0.001,0.0,0.0,0.0
08/09/2022,04:56:45,0.002,0.0,0.0,0.0
08/09/2022,04:57:36,0.000,0.0,0.0,0.0
08/09/2022,04:58:45,0.001,0.0,0.0,0.0
08/09/2022,04:59:36,0.000,0.0,0.0,0.0
08/09/2022,05:00:36,0.001,0.0,0.0,0.0
08/09/2022,05:01:36,0.001,0.0,0.0,0.0
08/09/2022,05:02:36,0.001,0.0,0.0,0.0
08/09/2022,05:03:36,0.001,0.0,0.0,0.0
08/09/2022,05:04:37,0.000,0.0,0.0,0.0
08/09/2022,05:05:36,0.001,0.0,0.0,0.0
08/09/2022,05:06:37,0.001,0.0,0.0,0.0
08/09/2022,05:07:36,0.000,0.0,0.0,0.0
08/09/2022,05:08:37,0.000,0.0,0.0,0.0
08/09/2022,05:09:36,0.001,0.0,0.0,0.0
08/09/2022,05:10:37,0.000,0.0,0.0,0.0
08/09/2022,05:11:45,-0.000,0.0,0.0,0.0
08/09/2022,05:12:36,0.000,0.0,0.0,0.0
08/09/2022,05:13:45,0.001,0.0,0.0,0.0
08/09/2022,05:14:36,0.001,0.0,0.0,0.0
08/09/2022,05:15:36,0.001,0.0,0.0,0.0
08/09/2022,05:16:37,0.001,0.0,0.0,0.0
08/09/2022,05:17:37,0.000,0.0,0.0,0.0
08/09/2022,05:18:36,0.001,0.0,0.0,0.0
08/09/2022,05:19:37,0.001,0.0,0.0,0.0
08/09/2022,05:20:37,0.001,0.0,0.0,0.0
08/09/2022,05:21:36,0.001,0.0,0.0,0.0
08/09/2022,05:22:37,0.001,0.0,0.0,0.0
08/09/2022,05:23:36,0.001,0.0,0.0,0.0
08/09/2022,05:24:36,0.000,0.0,0.0,0.0
08/09/2022,05:25:36,0.001,0.0,0.0,0.0
08/09/2022,05:26:36,-0.000,0.0,0.0,0.0
08/09/2022,05:27:36,0.002,0.0,0.0,0.0
08/09/2022,05:28:36,0.001,0.0,0.0,0.0
08/09/2022,05:29:45,0.002,0.0,0.0,0.0
08/09/2022,05:30:36,0.001,0.0,0.0,0.0
08/09/2022,05:31:37,0.001,0.0,0.0,0.0
08/09/2022,05:32:45,0.002,0.0,0.0,0.0
08/09/2022,05:33:36,0.000,0.0,0.0,0.0
08/09/2022,05:34:37,0.001,0.0,0.0,0.0
08/09/2022,05:35:36,0.002,0.0,0.0,0.0
08/09/2022,05:36:37,0.001,0.0,0.0,0.0
08/09/2022,05:37:37,0.002,0.0,0.0,0.0
08/09/2022,05:38:37,0.001,0.0,0.0,0.0
08/09/2022,05:39:37,0.002,0.0,0.0,0.0
08/09/2022,05:40:36,0.001,0.0,0.0,0.0
08/09/2022,05:41:36,0.002,0.0,0.0,0.0
08/09/2022,05:42:36,0.002,0.0,0.0,0.0
08/09/2022,05:43:36,0.001,0.0,0.0,0.0
08/09/2022,05:44:44,0.001,0.0,0.0,0.0
08/09/2022,05:45:37,0.001,0.0,0.0,0.0
08/09/2022,05:46:37,0.001,0.0,0.0,0.0
08/09/2022,05:47:45,0.002,0.0,0.0,0.0
08/09/2022,05:48:37,0.001,0.0,0.0,0.0
08/09/2022,05:49:36,0.003,0.0,0.0,0.0
08/09/2022,05:50:45,0.002,0.0,0.0,0.0
08/09/2022,05:51:36,0.002,0.0,0.0,0.0
08/09/2022,05:52:36,0.002,0.0,0.0,0.0
08/09/2022,05:53:37,0.003,0.0,0.0,0.0
08/09/2022,05:54:37,0.003,0.0,0.0,0.0
08/09/2022,05:55:37,0.003,0.0,0.0,0.0
08/09/2022,05:56:37,0.002,0.0,0.0,0.0
08/09/2022,05:57:37,0.004,0.0,0.0,0.0
08/09/2022,05:58:37,0.004,0.0,0.0,0.0
08/09/2022,05:59:37,0.004,0.0,0.0,0.0
08/09/2022,06:00:36,0.005,0.0,0.0,0.0
08/09/2022,06:01:36,0.005,0.0,0.0,0.0
08/09/2022,06:02:45,0.005,0.0,0.0,0.0
08/09/2022,06:03:37,0.006,0.0,0.0,0.0
08/09/2022,06:04:36,0.007,0.0,0.0,0.0
08/09/2022,06:05:37,0.008,0.0,0.0,0.0
08/09/2022,06:06:36,0.008,0.0,0.0,0.0
08/09/2022,06:07:37,0.008,0.0,0.001,0.001
08/09/2022,06:08:37,0.009,0.0,0.001,0.0
08/09/2022,06:09:37,0.009,0.0,0.001,0.0
08/09/2022,06:10:37,0.009,0.0,0.001,0.0
08/09/2022,06:11:36,0.010,0.0,0.001,0.0
08/09/2022,06:12:37,0.010,0.0,0.001,0.0
08/09/2022,06:13:36,0.011,0.0,0.001,0.0
08/09/2022,06:14:36,0.011,0.0,0.002,0.001
08/09/2022,06:15:37,0.012,0.0,0.002,0.0
08/09/2022,06:16:37,0.012,0.0,0.002,0.0
08/09/2022,06:17:36,0.012,0.0,0.002,0.0
08/09/2022,06:18:53,0.014,0.0,0.003,0.001
08/09/2022,06:20:38,0.015,0.0,0.003,0.0
08/09/2022,06:21:37,0.016,0.0,0.003,0.0
08/09/2022,06:22:37,0.017,0.0,0.004,0.001
08/09/2022,06:23:36,0.018,0.0,0.004,0.0
08/09/2022,06:24:37,0.019,0.0,0.004,0.0
08/09/2022,06:25:36,0.019,0.0,0.004,0.0
08/09/2022,06:26:36,0.021,0.0,0.005,0.001
08/09/2022,06:27:37,0.020,0.0,0.005,0.0
08/09/2022,06:28:39,0.022,0.0,0.005,0.0
08/09/2022,06:29:37,0.023,0.0,0.006,0.001
08/09/2022,06:30:36,0.023,0.0,0.006,0.0
08/09/2022,06:31:36,0.023,0.0,0.007,0.001
08/09/2022,06:32:45,0.025,0.0,0.007,0.0
08/09/2022,06:33:35,0.026,0.0,0.007,0.0
08/09/2022,06:34:37,0.027,0.0,0.008,0.001
08/09/2022,06:35:44,0.027,0.0,0.008,0.0
08/09/2022,06:36:38,0.029,0.0,0.009,0.001
08/09/2022,06:37:38,0.029,0.0,0.009,0.0
08/09/2022,06:38:37,0.029,0.0,0.01,0.001
08/09/2022,06:39:37,0.031,0.0,0.01,0.0
08/09/2022,06:40:37,0.031,0.0,0.011,0.001
08/09/2022,06:41:36,0.032,0.0,0.011,0.0
08/09/2022,06:42:37,0.032,0.0,0.012,0.001
08/09/2022,06:43:37,0.032,0.0,0.012,0.0
08/09/2022,06:44:37,0.033,0.0,0.013,0.001
08/09/2022,06:45:37,0.034,0.0,0.014,0.001
08/09/2022,06:46:37,0.035,0.0,0.014,0.0
08/09/2022,06:47:37,0.035,0.0,0.015,0.001
08/09/2022,06:48:37,0.035,0.0,0.015,0.0
08/09/2022,06:49:37,0.035,0.0,0.016,0.001
08/09/2022,06:50:37,0.037,0.0,0.016,0.0
08/09/2022,06:51:36,0.037,0.0,0.017,0.001
08/09/2022,06:52:37,0.038,0.0,0.018,0.001
08/09/2022,06:53:45,0.040,0.0,0.018,0.0
08/09/2022,06:54:36,0.041,0.0,0.019,0.001
08/09/2022,06:55:37,0.043,0.0,0.02,0.001
08/09/2022,06:56:36,0.044,0.0,0.02,0.0
08/09/2022,06:57:37,0.046,0.0,0.021,0.001
08/09/2022,06:58:36,0.048,0.0,0.022,0.001
08/09/2022,06:59:37,0.049,0.0,0.023,0.001
08/09/2022,07:00:36,0.050,0.0,0.024,0.001
08/09/2022,07:01:37,0.052,0.0,0.024,0.0
08/09/2022,07:02:37,0.052,0.0,0.025,0.001
08/09/2022,07:03:37,0.054,0.0,0.026,0.001
08/09/2022,07:04:36,0.056,0.0,0.027,0.001
08/09/2022,07:05:37,0.055,0.0,0.028,0.001
08/09/2022,07:06:45,0.057,0.0,0.029,0.001
08/09/2022,07:07:54,0.059,0.0,0.03,0.001
08/09/2022,07:09:38,0.063,0.0,0.032,0.002
08/09/2022,07:10:36,0.065,0.0,0.033,0.001
08/09/2022,07:11:36,0.066,0.0,0.034,0.001
08/09/2022,07:12:36,0.068,0.0,0.035,0.001
08/09/2022,07:13:37,0.071,0.0,0.036,0.001
08/09/2022,07:14:37,0.074,0.0,0.038,0.002
08/09/2022,07:15:37,0.077,0.0,0.039,0.001
08/09/2022,07:16:36,0.078,0.0,0.04,0.001
08/09/2022,07:17:37,0.079,0.0,0.041,0.001
08/09/2022,07:18:37,0.081,0.0,0.043,0.002
08/09/2022,07:19:37,0.082,0.0,0.044,0.001
08/09/2022,07:20:37,0.083,0.0,0.046,0.002
08/09/2022,07:21:37,0.085,0.0,0.047,0.001
08/09/2022,07:22:37,0.087,0.0,0.048,0.001
08/09/2022,07:23:37,0.080,0.0,0.05,0.002
08/09/2022,07:24:45,0.086,0.0,0.051,0.001
08/09/2022,07:25:37,0.091,0.0,0.053,0.002
08/09/2022,07:26:46,0.098,0.0,0.054,0.001
08/09/2022,07:27:37,0.103,0.0,0.056,0.002
08/09/2022,07:28:36,0.106,0.0,0.058,0.002
08/09/2022,07:29:37,0.109,0.0,0.059,0.001
08/09/2022,07:30:37,0.108,0.0,0.061,0.002
08/09/2022,07:31:37,0.110,0.0,0.063,0.002
08/09/2022,07:32:37,0.112,0.0,0.065,0.002
08/09/2022,07:33:37,0.121,0.0,0.067,0.002
08/09/2022,07:34:36,0.127,0.0,0.069,0.002
08/09/2022,07:35:37,0.128,0.0,0.071,0.002
08/09/2022,07:36:37,0.135,0.0,0.073,0.002
08/09/2022,07:37:37,0.138,0.0,0.075,0.002
08/09/2022,07:38:38,0.147,0.0,0.078,0.003
08/09/2022,07:39:45,0.147,0.0,0.081,0.003
08/09/2022,07:40:36,0.148,0.0,0.083,0.002
08/09/2022,07:41:37,0.158,0.0,0.085,0.002
08/09/2022,07:42:37,0.159,0.0,0.088,0.003
08/09/2022,07:43:37,0.152,0.0,0.091,0.003
08/09/2022,07:44:37,0.159,0.0,0.093,0.002
08/09/2022,07:45:37,0.157,0.0,0.096,0.003
08/09/2022,07:46:37,0.137,0.0,0.098,0.002
08/09/2022,07:47:37,0.147,0.0,0.101,0.003
08/09/2022,07:48:36,0.169,0.0,0.103,0.002
08/09/2022,07:49:39,0.181,0.0,0.106,0.003
08/09/2022,07:50:36,0.162,0.0,0.109,0.003
08/09/2022,07:51:37,0.168,0.0,0.112,0.003
08/09/2022,07:52:37,0.191,0.0,0.115,0.003
08/09/2022,07:53:37,0.208,0.0,0.118,0.003
08/09/2022,07:54:36,0.201,0.0,0.122,0.004
08/09/2022,07:55:37,0.185,0.0,0.125,0.003
08/09/2022,07:56:36,0.178,0.0,0.128,0.003
08/09/2022,07:57:45,0.182,0.0,0.131,0.003
08/09/2022,07:58:37,0.193,0.0,0.134,0.003
08/09/2022,07:59:37,0.204,0.0,0.137,0.003
08/09/2022,08:00:37,0.204,0.0,0.141,0.004
08/09/2022,08:01:37,0.206,0.0,0.144,0.003
08/09/2022,08:02:37,0.205,0.0,0.148,0.004
08/09/2022,08:03:37,0.206,0.0,0.151,0.003
08/09/2022,08:04:37,0.207,0.0,0.154,0.003
08/09/2022,08:05:37,0.205,0.0,0.158,0.004
08/09/2022,08:06:37,0.202,0.0,0.161,0.003
08/09/2022,08:07:37,0.199,0.0,0.165,0.004
08/09/2022,08:08:37,0.203,0.0,0.168,0.003
08/09/2022,08:09:37,0.202,0.0,0.171,0.003
08/09/2022,08:10:37,0.204,0.0,0.175,0.004
08/09/2022,08:11:37,0.209,0.0,0.178,0.003
08/09/2022,08:12:46,0.213,0.0,0.182,0.004
08/09/2022,08:13:37,0.214,0.0,0.185,0.003
08/09/2022,08:14:37,0.212,0.0,0.189,0.004
08/09/2022,08:15:45,0.218,1.0,0.193,0.004
08/09/2022,08:16:35,0.220,1.0,0.196,0.003
08/09/2022,08:17:37,0.221,1.0,0.2,0.004
08/09/2022,08:18:45,0.233,1.0,0.204,0.004
08/09/2022,08:19:36,0.238,1.0,0.207,0.003
08/09/2022,08:20:37,0.231,1.0,0.211,0.004
08/09/2022,08:21:36,0.247,1.0,0.215,0.004
08/09/2022,08:22:37,0.266,1.0,0.22,0.005
08/09/2022,08:23:37,0.269,1.0,0.224,0.004
08/09/2022,08:24:36,0.298,1.0,0.229,0.005
08/09/2022,08:25:37,0.303,1.0,0.234,0.005
08/09/2022,08:26:37,0.327,1.0,0.239,0.005
08/09/2022,08:27:36,0.320,1.0,0.245,0.006
08/09/2022,08:28:39,0.364,1.0,0.251,0.006
08/09/2022,08:29:37,0.358,1.0,0.257,0.006
08/09/2022,08:30:38,0.363,1.0,0.263,0.006
08/09/2022,08:31:38,0.367,1.0,0.269,0.006
08/09/2022,08:32:36,0.385,1.0,0.275,0.006
08/09/2022,08:33:37,0.386,1.0,0.281,0.006
08/09/2022,08:34:49,0.328,1.0,0.289,0.008
08/09/2022,08:36:38,0.370,1.0,0.3,0.011
08/09/2022,08:37:37,0.388,1.0,0.306,0.006
08/09/2022,08:38:37,0.399,1.0,0.312,0.006
08/09/2022,08:39:45,0.385,1.0,0.32,0.008
08/09/2022,08:40:37,0.379,1.0,0.325,0.005
08/09/2022,08:41:37,0.389,1.0,0.332,0.007
08/09/2022,08:42:37,0.401,1.0,0.338,0.006
08/09/2022,08:43:37,0.398,1.0,0.345,0.007
08/09/2022,08:44:37,0.379,1.0,0.351,0.006
08/09/2022,08:45:38,0.371,1.0,0.358,0.007
08/09/2022,08:46:37,0.345,1.0,0.364,0.006
08/09/2022,08:47:37,0.347,1.0,0.369,0.005
08/09/2022,08:48:37,0.400,1.0,0.375,0.006
08/09/2022,08:49:37,0.431,1.0,0.383,0.008
08/09/2022,08:50:45,0.442,1.0,0.391,0.008
08/09/2022,08:51:37,0.437,1.0,0.398,0.007
08/09/2022,08:52:37,0.459,1.0,0.405,0.007
08/09/2022,08:53:37,0.475,1.0,0.413,0.008
08/09/2022,08:54:37,0.403,1.0,0.42,0.007
08/09/2022,08:55:37,0.435,1.0,0.427,0.007
08/09/2022,08:56:37,0.458,1.0,0.434,0.007
08/09/2022,08:57:45,0.465,1.0,0.443,0.009
08/09/2022,08:58:37,0.443,1.0,0.45,0.007
08/09/2022,08:59:37,0.462,1.0,0.457,0.007
08/09/2022,09:00:37,0.442,1.0,0.465,0.008
08/09/2022,09:01:37,0.485,1.0,0.473,0.008
08/09/2022,09:02:37,0.446,1.0,0.48,0.007
08/09/2022,09:03:37,0.386,1.0,0.488,0.008
08/09/2022,09:04:37,0.348,1.0,0.493,0.005
08/09/2022,09:05:37,0.334,1.0,0.499,0.006
08/09/2022,09:06:37,0.298,1.0,0.505,0.006
08/09/2022,09:07:37,0.238,1.0,0.509,0.004
08/09/2022,09:08:37,0.241,1.0,0.513,0.004
08/09/2022,09:09:45,0.257,1.0,0.518,0.005
08/09/2022,09:10:37,0.253,1.0,0.521,0.003
08/09/2022,09:11:46,0.277,1.0,0.526,0.005
08/09/2022,09:12:37,0.294,1.0,0.53,0.004
08/09/2022,09:13:37,0.281,1.0,0.535,0.005
08/09/2022,09:14:37,0.304,1.0,0.54,0.005
08/09/2022,09:15:37,0.372,1.0,0.546,0.006
08/09/2022,09:16:37,0.393,1.0,0.552,0.006
08/09/2022,09:17:37,0.412,1.0,0.559,0.007
08/09/2022,09:18:37,0.417,1.0,0.565,0.006
08/09/2022,09:19:37,0.431,1.0,0.573,0.008
08/09/2022,09:20:37,0.444,1.0,0.58,0.007
08/09/2022,09:21:37,0.436,1.0,0.587,0.007
08/09/2022,09:22:37,0.441,1.0,0.595,0.008
08/09/2022,09:23:37,0.435,1.0,0.602,0.007
08/09/2022,09:24:37,0.462,1.0,0.609,0.007
08/09/2022,09:25:47,0.448,1.0,0.618,0.009
08/09/2022,09:26:37,0.432,1.0,0.624,0.006
08/09/2022,09:27:37,0.437,1.0,0.632,0.008
08/09/2022,09:28:37,0.434,1.0,0.639,0.007
08/09/2022,09:29:37,0.433,1.0,0.646,0.007
08/09/2022,09:30:37,0.416,1.0,0.653,0.007
08/09/2022,09:31:37,0.391,1.0,0.66,0.007
08/09/2022,09:32:37,0.355,1.0,0.666,0.006
08/09/2022,09:33:37,0.309,1.0,0.672,0.006
08/09/2022,09:34:37,0.311,1.0,0.677,0.005
08/09/2022,09:35:37,0.364,1.0,0.682,0.005
08/09/2022,09:36:37,0.416,1.0,0.689,0.007
08/09/2022,09:37:37,0.444,1.0,0.696,0.007
08/09/2022,09:38:37,0.453,1.0,0.704,0.008
08/09/2022,09:39:37,0.457,1.0,0.711,0.007
08/09/2022,09:40:46,0.488,1.0,0.72,0.009
08/09/2022,09:41:37,0.500,1.0,0.727,0.007
08/09/2022,09:42:37,0.523,1.0,0.736,0.009
08/09/2022,09:43:37,0.511,1.0,0.744,0.008
08/09/2022,09:44:37,0.501,1.0,0.753,0.009
08/09/2022,09:45:37,0.491,1.0,0.761,0.008
08/09/2022,09:46:37,0.481,1.0,0.769,0.008
08/09/2022,09:47:37,0.471,1.0,0.777,0.008
08/09/2022,09:48:37,0.470,1.0,0.785,0.008
08/09/2022,09:49:37,0.492,1.0,0.793,0.008
08/09/2022,09:50:37,0.520,1.0,0.802,0.009
08/09/2022,09:51:37,0.543,1.0,0.81,0.008
08/09/2022,09:52:39,0.560,1.0,0.82,0.01
08/09/2022,09:53:37,0.572,1.0,0.829,0.009
08/09/2022,09:54:37,0.601,1.0,0.838,0.009
08/09/2022,09:55:37,0.592,1.0,0.849,0.011
08/09/2022,09:56:35,0.556,1.0,0.858,0.009
08/09/2022,09:57:37,0.565,1.0,0.867,0.009
08/09/2022,09:58:45,0.591,1.0,0.879,0.012
08/09/2022,09:59:37,0.601,1.0,0.887,0.008
08/09/2022,10:00:37,0.550,1.0,0.897,0.01
08/09/2022,10:01:45,0.510,1.0,0.907,0.01
08/09/2022,10:02:37,0.479,1.0,0.914,0.007
08/09/2022,10:03:37,0.448,1.0,0.922,0.008
08/09/2022,10:04:44,0.388,1.0,0.929,0.007
08/09/2022,10:05:38,0.344,1.0,0.935,0.006
08/09/2022,10:06:37,0.327,1.0,0.94,0.005
08/09/2022,10:07:37,0.327,1.0,0.946,0.006
08/09/2022,10:08:37,0.306,1.0,0.951,0.005
08/09/2022,10:09:37,0.261,1.0,0.956,0.005
08/09/2022,10:10:37,0.220,1.0,0.96,0.004
08/09/2022,10:11:37,0.210,0.0,0.963,0.003
08/09/2022,10:12:37,0.247,1.0,0.967,0.004
08/09/2022,10:13:37,0.338,1.0,0.972,0.005
08/09/2022,10:14:37,0.371,1.0,0.978,0.006
08/09/2022,10:15:37,0.393,1.0,0.984,0.006
08/09/2022,10:16:45,0.445,1.0,0.992,0.008
08/09/2022,10:17:37,0.449,1.0,0.999,0.007
08/09/2022,10:18:37,0.424,1.0,1.006,0.007
08/09/2022,10:19:45,0.394,1.0,1.014,0.008
08/09/2022,10:20:37,0.410,1.0,1.02,0.006
08/09/2022,10:21:38,0.459,1.0,1.027,0.007
08/09/2022,10:22:45,0.463,1.0,1.036,0.009